shmoop.com alexa rank chart, shmoop.com alexa rank daily changes

shmoop.com alexa rank chart, shmoop.com alexa rank daily changes

shmoop.com
Actual rank:
4 459

RANK HISTORY

Date Rank Diff
2017/01/15 4 459 +150
2017/01/14 4 309 +414
2017/01/13 3 895 +221
2017/01/12 3 674 -18
2017/01/11 3 692 +42
2017/01/10 3 650 +94
2017/01/09 3 556 +142
2017/01/08 3 414 -100
2017/01/07 3 514 +112
2017/01/06 3 402 +55
2017/01/05 3 347 +62
2017/01/04 3 285 +69
2017/01/03 3 216 +113
2017/01/02 3 103 +25
2017/01/01 3 078 +61
2016/12/31 3 017 +71
2016/12/30 2 946 +21
2016/12/29 2 925 +127
2016/12/28 2 798 +55
2016/12/27 2 743 +24
2016/12/26 2 719 +32
2016/12/25 2 687 +65
2016/12/24 2 622 +122
2016/12/23 2 500 +45
2016/12/22 2 455 +34
2016/12/21 2 421 +6
2016/12/20 2 415 +52
2016/12/19 2 363 +46
2016/12/18 2 317 +14
2016/12/17 2 303 +68
2016/12/16 2 235 +16
2016/12/15 2 219 -66
2016/12/14 2 285 -120
2016/12/13 2 405 -63
2016/12/12 2 468 +17
2016/12/11 2 451 +67
2016/12/10 2 384 +13
2016/12/09 2 371 -22
2016/12/08 2 393 +18
2016/12/07 2 375 -51
2016/12/06 2 426 -1
2016/12/05 2 427 +18
2016/12/04 2 409 +12
2016/12/02 2 397 +24
2016/12/01 2 373 +12
2016/11/30 2 361 +38
2016/11/29 2 323 -47
2016/11/28 2 370 +3
2016/11/27 2 367 +21
2016/11/26 2 346 +14
2016/11/25 2 332 +6
2016/11/24 2 326 -60
2016/11/23 2 386 -29
2016/11/19 2 415 -6
2016/11/18 2 421 +6
2016/11/17 2 415 -69
2016/11/16 2 484

WIDGET FOR YOUR SITE

DOMAINS WITH THE NEAREST RANK

Domain Rank
hdsexdino.com 4 454
idigitaltimes.com 4 455
anetwork.ir 4 456
dbs.com.sg 4 457
dobreprogramy.pl 4 458
shmoop.com 4 459
moviepilot.com 4 460
njuskalo.hr 4 461
qianx6.com 4 462
algocashmaster.net 4 463
mellowsurvey.com 4 464

DOMAINS WITH THE NEAREST RANK BY TLD .com

Domain Rank
businessdictionary.com 4 450
experts-exchange.com 4 452
linktrker.com 4 453
hdsexdino.com 4 454
idigitaltimes.com 4 455
shmoop.com 4 459
moviepilot.com 4 460
qianx6.com 4 462
mellowsurvey.com 4 464
ancensored.com 4 466
space.com 4 468